Location: Unspecified
(0.0000°N, 0.0000°E)
Time: 02:48:37
(UTC+00:00)

SR - Pass Details

Date: 15 December 2018
Orbit: 584 x 872 km, 66.7° (Epoch: 18 March)

Event Time Altitude Azimuth Distance (km) Brightness Sun altitude
Rises 00:35:10 0° 201° (SSW) 3,414 - -64.8°
Reaches altitude 10° 00:37:37 10° 202° (SSW) 2,497 - -64.5°
Maximum altitude 00:43:27 83° 288° (WNW) 881 - -63.9°
Drops below altitude 10° 00:49:18 10° 17° (NNE) 2,494 - -63.3°
Sets 00:51:45 0° 18° (NNE) 3,410 - -63.0°
